Previsão horária em Ablon-sur-Seine

Hoje, 11 Abril, Domingo

Tempo Temperatura Precipitação Vento Pressão Humidade
00:00 +8°C° 0 mm 2 m/s 750 mmHg 92%
01:00 +7°C° 0 mm 2 m/s 750 mmHg 92%
02:00 +7°C° 0 mm 3 m/s 750 mmHg 92%
03:00 +7°C° 0 mm 3 m/s 750 mmHg 92%
04:00 +5°C° 0.2 mm 4 m/s 750 mmHg 93%
05:00 +4°C° 0.2 mm 4 m/s 750 mmHg 93%
06:00 +4°C° 0.2 mm 4 m/s 751 mmHg 94%
07:00 +3°C° 0.7 mm 4 m/s 751 mmHg 94%
08:00 +3°C° 0.7 mm 4 m/s 752 mmHg 94%
09:00 +2°C° 0.7 mm 5 m/s 752 mmHg 94%
10:00 +2°C° 0 mm 5 m/s 753 mmHg 89%
11:00 +3°C° 0 mm 5 m/s 754 mmHg 84%
12:00 +3°C° 0 mm 5 m/s 754 mmHg 79%
13:00 +5°C° 0 mm 4 m/s 755 mmHg 76%
14:00 +5°C° 0 mm 4 m/s 755 mmHg 74%
15:00 +5°C° 0 mm 4 m/s 755 mmHg 71%
16:00 +5°C° 0 mm 3 m/s 756 mmHg 69%
17:00 +5°C° 0 mm 3 m/s 757 mmHg 66%
18:00 +7°C° 0 mm 3 m/s 757 mmHg 64%
19:00 +5°C° 0 mm 3 m/s 758 mmHg 65%
20:00 +4°C° 0 mm 3 m/s 759 mmHg 66%
21:00 +3°C° 0 mm 3 m/s 760 mmHg 68%
22:00 +2°C° 0 mm 3 m/s 760 mmHg 70%
23:00 +3°C° 0 mm 2 m/s 761 mmHg 72%

Amanhã, 12 Abril, Segunda-feira

Tempo Temperatura Precipitação Vento Pressão Humidade
00:00 +2°C° 0 mm 2 m/s 761 mmHg 74%
01:00 +2°C° 0 mm 2 m/s 762 mmHg 75%
02:00 +2°C° 0 mm 1 m/s 762 mmHg 76%
03:00 +2°C° 0 mm 1 m/s 762 mmHg 78%
04:00 +2°C° 0 mm 1 m/s 763 mmHg 77%
05:00 +3°C° 0 mm 1 m/s 763 mmHg 77%
06:00 +3°C° 0 mm 1 m/s 763 mmHg 76%
07:00 +4°C° 0 mm 2 m/s 764 mmHg 69%
08:00 +6°C° 0 mm 2 m/s 764 mmHg 62%
09:00 +7°C° 0 mm 3 m/s 764 mmHg 55%
10:00 +8°C° 0 mm 3 m/s 764 mmHg 50%
11:00 +10°C° 0 mm 3 m/s 764 mmHg 44%
12:00 +11°C° 0 mm 3 m/s 764 mmHg 38%
13:00 +11°C° 0 mm 4 m/s 764 mmHg 41%
14:00 +10°C° 0 mm 4 m/s 764 mmHg 44%
15:00 +10°C° 0 mm 4 m/s 763 mmHg 46%
16:00 +8°C° 0.1 mm 4 m/s 764 mmHg 54%
17:00 +7°C° 0.1 mm 4 m/s 764 mmHg 62%
18:00 +6°C° 0.1 mm 4 m/s 764 mmHg 70%
19:00 +7°C° 0 mm 3 m/s 765 mmHg 75%
20:00 +5°C° 0 mm 3 m/s 765 mmHg 80%
21:00 +5°C° 0 mm 2 m/s 765 mmHg 84%
22:00 +5°C° 0.1 mm 2 m/s 765 mmHg 86%
23:00 +4°C° 0.1 mm 2 m/s 766 mmHg 87%

Depois de amanhã, 13 Abril, Terça-feira

Tempo Temperatura Precipitação Vento Pressão Humidade
00:00 +4°C° 0.1 mm 2 m/s 766 mmHg 88%
01:00 +3°C° 0 mm 3 m/s 766 mmHg 87%
02:00 +2°C° 0 mm 3 m/s 766 mmHg 85%
03:00 +2°C° 0 mm 3 m/s 766 mmHg 84%
04:00 +1°C° 0 mm 3 m/s 767 mmHg 83%
05:00 +1°C° 0 mm 3 m/s 767 mmHg 82%
06:00 +1°C° 0 mm 2 m/s 767 mmHg 81%
07:00 +2°C° 0 mm 3 m/s 767 mmHg 72%
08:00 +4°C° 0 mm 3 m/s 768 mmHg 62%
09:00 +5°C° 0 mm 4 m/s 768 mmHg 53%
10:00 +6°C° 0 mm 4 m/s 768 mmHg 46%
11:00 +8°C° 0 mm 3 m/s 768 mmHg 40%
12:00 +9°C° 0 mm 3 m/s 767 mmHg 33%
13:00 +10°C° 0 mm 3 m/s 767 mmHg 33%
14:00 +10°C° 0 mm 3 m/s 767 mmHg 33%
15:00 +10°C° 0 mm 3 m/s 766 mmHg 32%
16:00 +9°C° 0 mm 3 m/s 766 mmHg 37%
17:00 +9°C° 0 mm 3 m/s 766 mmHg 42%
18:00 +8°C° 0 mm 2 m/s 766 mmHg 47%
19:00 +7°C° 0 mm 2 m/s 767 mmHg 49%
20:00 +6°C° 0 mm 2 m/s 767 mmHg 52%
21:00 +5°C° 0 mm 2 m/s 767 mmHg 54%
22:00 +4°C° 0 mm 2 m/s 767 mmHg 58%
23:00 +4°C° 0 mm 2 m/s 767 mmHg 61%

14 Abril, Quarta-feira

Tempo Temperatura Precipitação Vento Pressão Humidade
00:00 +3°C° 0 mm 2 m/s 767 mmHg 64%
01:00 +3°C° 0 mm 2 m/s 767 mmHg 66%
02:00 +3°C° 0 mm 1 m/s 767 mmHg 68%
03:00 +3°C° 0 mm 1 m/s 767 mmHg 70%
04:00 +3°C° 0 mm 1 m/s 767 mmHg 71%
05:00 +3°C° 0 mm 1 m/s 767 mmHg 71%
06:00 +3°C° 0 mm 1 m/s 767 mmHg 71%
07:00 +5°C° 0 mm 1 m/s 767 mmHg 64%
08:00 +7°C° 0 mm 1 m/s 767 mmHg 57%
09:00 +8°C° 0 mm 2 m/s 767 mmHg 51%
10:00 +9°C° 0 mm 2 m/s 766 mmHg 48%
11:00 +10°C° 0 mm 2 m/s 766 mmHg 45%
12:00 +10°C° 0 mm 2 m/s 766 mmHg 41%
13:00 +10°C° 0 mm 3 m/s 765 mmHg 43%
14:00 +10°C° 0 mm 3 m/s 765 mmHg 45%
15:00 +10°C° 0 mm 3 m/s 765 mmHg 47%
16:00 +9°C° 0 mm 3 m/s 765 mmHg 51%
17:00 +9°C° 0 mm 3 m/s 765 mmHg 56%
18:00 +8°C° 0 mm 3 m/s 765 mmHg 61%
19:00 +7°C° 0 mm 3 m/s 765 mmHg 65%
20:00 +5°C° 0 mm 3 m/s 765 mmHg 68%
21:00 +4°C° 0 mm 3 m/s 765 mmHg 72%
22:00 +3°C° 0 mm 3 m/s 765 mmHg 72%
23:00 +3°C° 0 mm 3 m/s 765 mmHg 73%

15 Abril, Quinta-feira

Tempo Temperatura Precipitação Vento Pressão Humidade
00:00 +2°C° 0 mm 3 m/s 766 mmHg 74%
01:00 +2°C° 0 mm 3 m/s 765 mmHg 76%
02:00 +1°C° 0 mm 3 m/s 765 mmHg 78%
03:00 +1°C° 0 mm 3 m/s 765 mmHg 81%
04:00 +1°C° 0 mm 3 m/s 766 mmHg 81%
05:00 +1°C° 0 mm 3 m/s 766 mmHg 82%
06:00 +1°C° 0 mm 3 m/s 766 mmHg 82%
07:00 +3°C° 0 mm 3 m/s 766 mmHg 73%
08:00 +4°C° 0 mm 4 m/s 766 mmHg 64%
09:00 +6°C° 0 mm 4 m/s 766 mmHg 56%
10:00 +7°C° 0 mm 5 m/s 766 mmHg 51%
11:00 +9°C° 0 mm 5 m/s 766 mmHg 46%
12:00 +10°C° 0 mm 5 m/s 765 mmHg 41%
13:00 +9°C° 0 mm 5 m/s 765 mmHg 42%
14:00 +9°C° 0 mm 5 m/s 765 mmHg 44%
15:00 +9°C° 0 mm 5 m/s 765 mmHg 46%
16:00 +8°C° 0.1 mm 5 m/s 765 mmHg 49%
17:00 +8°C° 0.1 mm 5 m/s 765 mmHg 53%
18:00 +7°C° 0.1 mm 5 m/s 765 mmHg 56%
19:00 +6°C° 0 mm 5 m/s 765 mmHg 58%
20:00 +5°C° 0 mm 5 m/s 765 mmHg 60%
21:00 +5°C° 0 mm 4 m/s 765 mmHg 62%
22:00 +4°C° 0 mm 4 m/s 765 mmHg 64%
23:00 +3°C° 0 mm 4 m/s 765 mmHg 66%

16 Abril, Sexta-feira

Tempo Temperatura Precipitação Vento Pressão Humidade
00:00 +3°C° 0 mm 3 m/s 765 mmHg 69%
01:00 +2°C° 0 mm 3 m/s 765 mmHg 71%
02:00 +2°C° 0 mm 3 m/s 765 mmHg 73%
03:00 +1°C° 0 mm 3 m/s 764 mmHg 75%
04:00 +1°C° 0 mm 3 m/s 764 mmHg 76%
05:00 0°C° 0 mm 4 m/s 764 mmHg 76%
06:00 0°C° 0 mm 4 m/s 764 mmHg 76%
07:00 +3°C° 0 mm 4 m/s 764 mmHg 70%
08:00 +3°C° 0 mm 5 m/s 764 mmHg 64%
09:00 +6°C° 0 mm 5 m/s 764 mmHg 57%
10:00 +5°C° 0 mm 6 m/s 763 mmHg 55%
11:00 +7°C° 0 mm 6 m/s 763 mmHg 53%
12:00 +8°C° 0 mm 6 m/s 763 mmHg 51%
13:00 +8°C° 0 mm 5 m/s 762 mmHg 53%
14:00 +8°C° 0 mm 5 m/s 762 mmHg 55%
15:00 +8°C° 0 mm 5 m/s 762 mmHg 57%
16:00 +7°C° 0 mm 5 m/s 761 mmHg 59%
17:00 +7°C° 0 mm 5 m/s 761 mmHg 62%
18:00 +7°C° 0 mm 4 m/s 761 mmHg 65%
19:00 +7°C° 0 mm 5 m/s 761 mmHg 67%
20:00 +6°C° 0 mm 5 m/s 761 mmHg 69%
21:00 +6°C° 0 mm 5 m/s 761 mmHg 71%
22:00 +5°C° 0 mm 4 m/s 761 mmHg 74%
23:00 +5°C° 0 mm 4 m/s 761 mmHg 76%
Mostrar mais